User: anonymous   Login
Location: Unspecified
(50.1700°N, 6.8600°E)
Time: 00:13:40
(UTC+00:00)
Language:

IRS-1C Rocket - Orbit

View from above orbital plane
View from above orbital plane
View from above satellite
View from above satellite

Ground track
Ground track

The orbit data is extracted from the following two-line orbital elements,

1 23753U 95072C   19292.76409218 -.00000040  00000-0  29293-5 0  9998
2 23753  98.9805 295.5810 0002876 315.0011  45.0935 14.26588805239282
Epoch (UTC): 19 October 2019 18:20:17
Eccentricity: 0.0002876
inclination: 98.9805°
perigee height: 801 km
apogee height: 805 km
right ascension of ascending node: 295.5810°
argument of perigee: 315.0011°
revolutions per day: 14.26588805
mean anomaly at epoch: 45.0935°
orbit number at epoch: 23928

The dashed part of the orbit path shows where the satellite is in the earth's shadow,  

DLR